Location: Stull Observatory
(42.2506°N, 77.7903°W)
Time: 17:54:23
(UTC-04:00)

ISS - All Passes

Search period start: 30 September 2014 00:00
Search period end: 10 October 2014 00:00
Orbit: 413 x 416 km, 51.6° (Epoch: 30 September)

Date Brightness Start Highest point End Pass type
(mag) Time Alt. Az. Time Alt. Az. Time Alt. Az.
30 Sep - 00:00:00 26° NE 23:59:45 31° NE 00:01:40 10° NE night (unlit)
30 Sep - 01:33:09 10° WNW 01:35:36 19° NNW 01:38:04 10° NE night (unlit)
30 Sep - 03:10:51 10° NW 03:13:13 18° N 03:15:34 10° NE night (unlit)
30 Sep - 04:47:17 10° NW 04:50:31 46° NNE 04:53:44 10° ESE visible
30 Sep - 06:24:20 10° W 06:27:02 23° SW 06:29:43 10° S visible
30 Sep - 21:32:42 10° SE 21:33:06 10° SE 21:33:31 10° ESE night (unlit)
30 Sep - 23:05:58 10° SW 23:09:17 85° SE 23:12:37 10° ENE night (unlit)
01 Oct - 00:43:36 10° WNW 00:46:19 22° NNW 00:49:02 10° NE night (unlit)
01 Oct - 02:21:41 10° NW 02:23:53 16° N 02:26:05 10° NE night (unlit)
01 Oct - 03:58:17 10° NW 04:01:20 32° NNE 04:04:21 10° E visible
01 Oct - 05:34:56 10° WNW 05:38:05 40° SW 05:41:12 10° SSE visible
01 Oct - 22:17:01 10° SW 22:20:14 47° SE 22:23:27 10° ENE night (unlit)
01 Oct - 23:54:05 10° W 23:57:03 29° NNW 00:00:01 10° NE night (unlit)
02 Oct - 01:32:20 10° NW 01:34:31 16° N 01:36:43 10° NE night (unlit)
02 Oct - 03:09:17 10° NW 03:12:04 24° NNE 03:14:51 10° ENE night (unlit)
02 Oct - 04:45:43 10° WNW 04:49:02 72° SW 04:52:20 10° SE visible
02 Oct - 21:28:21 10° SSW 21:31:13 27° SE 21:34:05 10° ENE night (unlit)
02 Oct - 23:04:37 10° W 23:07:48 41° NNW 23:10:59 10° NE night (unlit)
03 Oct - 00:42:51 10° NW 00:45:09 17° N 00:47:27 10° NE night (unlit)
03 Oct - 02:20:13 10° NW 02:22:45 20° NNE 02:25:16 10° ENE night (unlit)
03 Oct - 03:56:35 10° NW 03:59:54 67° NNE 04:03:13 10° ESE night (unlit)
03 Oct - 05:34:14 10° W 05:36:15 15° SW 05:38:15 10° S visible
03 Oct - 20:40:09 10° S 20:42:14 16° SE 20:44:20 10° E visible
03 Oct - 22:15:17 10° WSW 22:18:35 65° NNW 22:21:54 10° NE night (unlit)
03 Oct - 23:53:15 10° WNW 23:55:46 19° NNW 23:58:17 10° NE night (unlit)
04 Oct - 01:31:03 10° NW 01:33:22 17° N 01:35:40 10° NE night (unlit)
04 Oct - 03:07:30 10° NW 03:10:42 42° NNE 03:13:52 10° E night (unlit)
04 Oct - 04:44:26 10° WNW 04:47:16 26° SW 04:50:05 10° SSE night (unlit)
04 Oct - 21:26:06 10° SW 21:29:25 74° SE 21:32:45 10° ENE visible
04 Oct - 23:03:37 10° WNW 23:06:23 24° NNW 23:09:10 10° NE night (unlit)
05 Oct - 00:41:45 10° NW 00:43:56 16° N 00:46:07 10° NE night (unlit)
05 Oct - 02:18:25 10° NW 02:21:24 29° NNE 02:24:23 10° E night (unlit)
05 Oct - 03:55:00 10° WNW 03:58:12 46° SW 04:01:23 10° SE night (unlit)
05 Oct - 20:37:08 10° SSW 20:40:17 41° SE 20:43:27 10° ENE visible
05 Oct - 22:14:01 10° W 22:17:02 31° NNW 22:20:04 10° NE night (unlit)
05 Oct - 23:52:17 10° NW 23:54:29 16° N 23:56:41 10° NE night (unlit)
06 Oct - 01:29:19 10° NW 01:32:02 23° NNE 01:34:45 10° ENE night (unlit)
06 Oct - 03:05:43 10° WNW 03:09:03 82° SW 03:12:22 10° SE night (unlit)
06 Oct - 19:48:28 10° S 19:51:11 24° SE 19:53:55 10° E visible
06 Oct - 21:24:30 10° WSW 21:27:43 45° NNW 21:30:56 10° NE visible
06 Oct - 23:02:40 10° NW 23:05:01 18° N 23:07:22 10° NE night (unlit)
07 Oct - 00:40:08 10° NW 00:42:37 19° NNE 00:45:04 10° ENE night (unlit)
07 Oct - 02:16:31 10° NW 02:19:49 59° NNE 02:23:06 10° ESE night (unlit)
07 Oct - 03:53:55 10° W 03:56:12 17° SW 03:58:29 10° S night (unlit)
07 Oct - 19:00:22 10° SSE 19:02:08 14° SE 19:03:54 10° E daylight
07 Oct - 20:35:06 10° WSW 20:38:25 74° NNW 20:41:45 10° NE visible
07 Oct - 22:12:58 10° WNW 22:15:32 20° NNW 22:18:07 10° NE visible
07 Oct - 23:50:51 10° NW 23:53:08 17° N 23:55:24 10° NE night (unlit)
08 Oct - 01:27:21 10° NW 01:30:30 38° NNE 01:33:38 10° E night (unlit)
08 Oct - 03:04:09 10° WNW 03:07:07 30° SW 03:10:03 10° SSE night (unlit)
08 Oct - 19:45:53 10° SW 19:49:10 64° SE 19:52:29 10° ENE visible
08 Oct - 21:23:15 10° WNW 21:26:05 25° NNW 21:28:56 10° NE visible
08 Oct - 23:01:25 10° NW 23:03:36 16° N 23:05:47 10° NE night (unlit)
09 Oct - 00:38:10 10° NW 00:41:06 27° NNE 00:44:00 10° E night (unlit)
09 Oct - 02:14:41 10° WNW 02:17:56 53° SW 02:21:11 10° SE night (unlit)
09 Oct - 18:56:54 10° SSW 18:59:58 35° SE 19:03:03 10° ENE daylight
09 Oct - 20:33:34 10° W 20:36:39 34° NNW 20:39:44 10° NE visible
09 Oct - 22:11:50 10° NW 22:14:03 17° N 22:16:17 10° NE visible
09 Oct - 23:48:58 10° NW 23:51:37 22° NNE 23:54:16 10° ENE night (unlit)
